Content
SEND FEEDBACK

Daily
Averages
Monthly
Summary
Turkmenistan

ASHGABAT, TURKMENISTAN


Home > Asia > Turkmenistan
Elevation: 775 feet     Latitude: 37 58N     Longitude: 058 20E

WEATHER
 
SELECT A DAY
Number of Records: 181,286;   Date Range: 3/15/97 - 10/24/14
 
SHARE

PRINT THIS DATA

[ ← Previous Day ]
WEATHER ALMANAC - JULY 28, 2013
[ Next Day → ]
[ °C ]   °F
Weather ElementAverageHighLow
Temperature93.1 °F105.8 °F (4:30 pm)77 °F (6:30 am)
Dewpoint50.4 °F58 °F (5:00 am)46.4 °F (1:00 pm)
Humidity23.2 %47 % (6:30 am)9 % (5:00 pm)
Barometer29.64 in29.71 in (4:00 am)29.53 in (8:00 pm)
Wind Speed8.8 mph20.1 mph (3:00 pm)
Weather ElementAverage
Visibility6 mi
Wind DirectionE (87 °)

Weather ElementTotal
Precipitation---
Cooling Degree Days26.4 (Base 65)
Growing Degree Days41.4 (Base 50)
Averaged from 39 records on July 28, 2013
WEATHER CONDITIONS BREAKOUT
WIND DIRECTION BREAKOUT
WEATHER BY HOUR - JULY 28, 2013
[ °C ]   °F
Local TimeTemperatureDewpointHumidityBarometerVisibilityWind DirectionWind SpeedGust SpeedPrecipitationEventsConditions
1:00 AM87.8 °F50.0 °F27 %29.65 in6.2 miNNE (30°)4.5 mphClear
2:00 AM85.0 °F57.0 °F29 %29.66 in6.0 miWest (260°)4.5 mph
2:00 AM86.0 °F51.8 °F31 %29.68 in4.3 miSSW (210°)4.5 mphClear
2:30 AM86.0 °F51.8 °F31 %29.68 in6.2 miSE (140°)4.5 mphClear
3:00 AM86.0 °F51.8 °F31 %29.68 in4.3 miVariable2.2 mphClear
3:30 AM84.2 °F51.8 °F33 %29.68 in5.0 miCalmClear
4:00 AM82.4 °F51.8 °F35 %29.71 in6.2 miCalmClear
5:00 AM81.0 °F58.0 °F36 %29.68 in6.0 miCalm
5:00 AM80.6 °F55.4 °F42 %29.71 in6.2 miCalmClear
6:00 AM80.6 °F50.0 °F34 %29.71 in6.2 miCalmClear
6:30 AM77.0 °F55.4 °F47 %29.71 in6.2 miCalmClear
7:00 AM78.8 °F53.6 °F42 %29.71 in6.2 miSW (230°)4.5 mphClear
7:30 AM84.2 °F51.8 °F33 %29.71 in6.2 miCalmClear
8:00 AM84.0 °F55.0 °F26 %29.70 in6.0 miCalm
8:00 AM86.0 °F50.0 °F29 %29.71 in6.2 miCalmClear
9:00 AM87.8 °F48.2 °F25 %29.71 in6.2 miNE (50°)4.5 mphClear
10:00 AM91.4 °F50.0 °F24 %29.71 in6.2 miEast (90°)8.9 mphClear
11:00 AM92.0 °F53.0 °F17 %29.68 in6.0 miEast (90°)4.5 mph
11:00 AM95.0 °F48.2 °F20 %29.71 in6.2 miEast (90°)4.5 mphClear
12:00 PM96.8 °F48.2 °F19 %29.68 in6.2 miEast (100°)8.9 mphClear
1:00 PM100.4 °F46.4 °F16 %29.65 in6.2 miEast (90°)11.2 mphClear
2:00 PM102.0 °F54.0 °F12 %29.61 in6.0 miSE (130°)17.9 mph
2:00 PM102.2 °F46.4 °F15 %29.62 in6.2 miSE (130°)17.9 mphClear
3:00 PM104.0 °F46.4 °F14 %29.62 in6.2 miESE (110°)20.1 mphClear
3:30 PM104.0 °F46.4 °F14 %29.59 in6.2 miEast (90°)17.9 mphClear
4:00 PM104.0 °F46.4 °F14 %29.59 in6.2 miEast (90°)17.9 mphClear
4:30 PM105.8 °F46.4 °F14 %29.56 in6.2 miEast (90°)20.1 mphClear
5:00 PM105.0 °F51.0 °F9 %29.55 in6.0 miEast (100°)20.1 mph
5:00 PM104.0 °F46.4 °F14 %29.56 in6.2 miEast (100°)20.1 mphClear
5:30 PM104.0 °F46.4 °F14 %29.56 in6.2 miEast (100°)17.9 mphClear
6:00 PM104.0 °F46.4 °F14 %29.56 in6.2 miEast (100°)17.9 mphClear
6:30 PM104.0 °F46.4 °F14 %29.56 in6.2 miEast (100°)15.7 mphClear
7:00 PM102.2 °F46.4 °F15 %29.56 in6.2 miEast (100°)15.7 mphClear
8:00 PM100.0 °F54.0 °F14 %29.53 in6.0 miEast (100°)11.2 mph
8:00 PM100.4 °F48.2 °F17 %29.56 in6.2 miEast (100°)11.2 mphClear
9:00 PM96.8 °F48.2 °F19 %29.56 in6.2 miESE (110°)8.9 mphClear
10:00 PM95.0 °F48.2 °F20 %29.56 in6.2 miSE (130°)8.9 mphClear
11:00 PM91.0 °F57.0 °F22 %29.55 in6.0 miEast (80°)8.9 mph
11:00 PM91.4 °F50.0 °F24 %29.59 in6.2 miEast (80°)8.9 mphClear
Hourly data recorded from UTAA, located miles away from Ashgabat, Turkmenistan







STORIES FROM OUR PARTNERS